• In Czech Republic
  • List of Countries
  • For 7 days
  • Water Temperature
  • Satellite Maps
  • Weather Map
  • Weather Widgets
  • user-avatar
    Login

    Hourly Weather Poluhtino

    Today, 20 September, Thursday

    Time Temperature Precipitation Wind Pressure Humidity
    00:00 +16°C° 0 mm 3 mps 744 mmHg 94%
    01:00 +16°C° 0 mm 3 mps 744 mmHg 95%
    02:00 +16°C° 0 mm 3 mps 744 mmHg 96%
    03:00 +14°C° 0 mm 3 mps 744 mmHg 96%
    04:00 +14°C° 0 mm 3 mps 744 mmHg 97%
    05:00 +14°C° 0 mm 3 mps 744 mmHg 97%
    06:00 +16°C° 0 mm 3 mps 744 mmHg 93%
    07:00 +17°C° 0 mm 4 mps 744 mmHg 89%
    08:00 +17°C° 0 mm 4 mps 745 mmHg 85%
    09:00 +18°C° 0 mm 4 mps 745 mmHg 78%
    10:00 +20°C° 0 mm 4 mps 745 mmHg 71%
    11:00 +21°C° 0 mm 4 mps 745 mmHg 64%
    12:00 +21°C° 0 mm 4 mps 745 mmHg 62%
    13:00 +22°C° 0 mm 4 mps 746 mmHg 61%
    14:00 +24°C° 0 mm 3 mps 746 mmHg 59%
    15:00 +21°C° 0 mm 3 mps 746 mmHg 64%
    16:00 +20°C° 0 mm 2 mps 746 mmHg 70%
    17:00 +19°C° 0 mm 2 mps 746 mmHg 76%
    18:00 +18°C° 0 mm 2 mps 746 mmHg 80%
    19:00 +17°C° 0 mm 2 mps 746 mmHg 84%
    20:00 +16°C° 0 mm 2 mps 746 mmHg 88%
    21:00 +15°C° 0 mm 2 mps 747 mmHg 89%
    22:00 +15°C° 0 mm 2 mps 747 mmHg 90%
    23:00 +14°C° 0 mm 2 mps 747 mmHg 92%

    Tomorrow, 21 September, Friday

    Time Temperature Precipitation Wind Pressure Humidity
    00:00 +14°C° 0 mm 2 mps 747 mmHg 92%
    01:00 +14°C° 0 mm 2 mps 747 mmHg 93%
    02:00 +14°C° 0 mm 2 mps 747 mmHg 94%
    03:00 +14°C° 0 mm 2 mps 748 mmHg 94%
    04:00 +13°C° 0 mm 2 mps 748 mmHg 94%
    05:00 +13°C° 0 mm 2 mps 748 mmHg 95%
    06:00 +15°C° 0 mm 2 mps 748 mmHg 90%
    07:00 +16°C° 0 mm 2 mps 748 mmHg 85%
    08:00 +17°C° 0 mm 2 mps 748 mmHg 81%
    09:00 +19°C° 0 mm 2 mps 748 mmHg 76%
    10:00 +21°C° 0 mm 2 mps 748 mmHg 71%
    11:00 +22°C° 0 mm 3 mps 749 mmHg 65%
    12:00 +24°C° 0 mm 3 mps 748 mmHg 64%
    13:00 +24°C° 0 mm 3 mps 748 mmHg 63%
    14:00 +25°C° 0 mm 3 mps 748 mmHg 62%
    15:00 +24°C° 0 mm 2 mps 748 mmHg 67%
    16:00 +23°C° 0 mm 2 mps 748 mmHg 73%
    17:00 +21°C° 0 mm 2 mps 748 mmHg 79%
    18:00 +20°C° 0 mm 2 mps 748 mmHg 81%
    19:00 +18°C° 0 mm 2 mps 748 mmHg 84%
    20:00 +17°C° 0 mm 2 mps 747 mmHg 87%
    21:00 +17°C° 0 mm 2 mps 747 mmHg 88%
    22:00 +16°C° 0 mm 2 mps 747 mmHg 89%
    23:00 +16°C° 0 mm 3 mps 747 mmHg 89%

    Day after tomorrow, 22 September, Saturday

    Time Temperature Precipitation Wind Pressure Humidity
    00:00 +16°C° 0 mm 3 mps 747 mmHg 90%
    01:00 +16°C° 0 mm 3 mps 746 mmHg 90%
    02:00 +16°C° 0 mm 3 mps 746 mmHg 90%
    03:00 +16°C° 0 mm 3 mps 746 mmHg 90%
    04:00 +16°C° 0 mm 3 mps 746 mmHg 91%
    05:00 +15°C° 0 mm 4 mps 745 mmHg 91%
    06:00 +17°C° 0 mm 4 mps 745 mmHg 86%
    07:00 +18°C° 0 mm 4 mps 744 mmHg 81%
    08:00 +19°C° 0 mm 5 mps 744 mmHg 75%
    09:00 +20°C° 0 mm 5 mps 744 mmHg 70%
    10:00 +21°C° 0 mm 6 mps 743 mmHg 64%
    11:00 +23°C° 0 mm 6 mps 742 mmHg 58%
    12:00 +23°C° 0 mm 6 mps 742 mmHg 57%
    13:00 +24°C° 0 mm 6 mps 742 mmHg 55%
    14:00 +24°C° 0 mm 6 mps 741 mmHg 53%
    15:00 +23°C° 0.3 mm 6 mps 741 mmHg 60%
    16:00 +21°C° 0.3 mm 6 mps 741 mmHg 66%
    17:00 +19°C° 0.3 mm 5 mps 741 mmHg 73%
    18:00 +18°C° 0.2 mm 4 mps 742 mmHg 78%
    19:00 +16°C° 0.2 mm 3 mps 742 mmHg 84%
    20:00 +14°C° 0.2 mm 2 mps 742 mmHg 90%
    21:00 +14°C° 0.3 mm 2 mps 742 mmHg 89%
    22:00 +13°C° 0.3 mm 2 mps 742 mmHg 89%
    23:00 +12°C° 0.3 mm 3 mps 742 mmHg 89%

    23 September, Sunday

    Time Temperature Precipitation Wind Pressure Humidity
    00:00 +11°C° 0.9 mm 3 mps 742 mmHg 90%
    01:00 +10°C° 0.9 mm 3 mps 742 mmHg 91%
    02:00 +10°C° 0.9 mm 3 mps 741 mmHg 92%
    03:00 +10°C° 0.8 mm 2 mps 741 mmHg 93%
    04:00 +9°C° 0.8 mm 2 mps 741 mmHg 93%
    05:00 +9°C° 0.8 mm 2 mps 741 mmHg 94%
    06:00 +9°C° 0.6 mm 2 mps 741 mmHg 94%
    07:00 +10°C° 0.6 mm 2 mps 741 mmHg 93%
    08:00 +10°C° 0.6 mm 2 mps 741 mmHg 93%
    09:00 +10°C° 0.2 mm 3 mps 740 mmHg 90%
    10:00 +11°C° 0.2 mm 3 mps 740 mmHg 87%
    11:00 +11°C° 0.2 mm 3 mps 740 mmHg 84%
    12:00 +12°C° 0.1 mm 3 mps 740 mmHg 78%
    13:00 +13°C° 0.1 mm 3 mps 739 mmHg 71%
    14:00 +13°C° 0.1 mm 3 mps 739 mmHg 65%
    15:00 +13°C° 0.2 mm 3 mps 739 mmHg 69%
    16:00 +12°C° 0.2 mm 3 mps 739 mmHg 74%
    17:00 +12°C° 0.2 mm 2 mps 739 mmHg 79%
    18:00 +10°C° 0.2 mm 3 mps 739 mmHg 82%
    19:00 +10°C° 0.2 mm 3 mps 739 mmHg 85%
    20:00 +9°C° 0.2 mm 3 mps 739 mmHg 89%
    21:00 +8°C° 0 mm 3 mps 739 mmHg 90%
    22:00 +8°C° 0 mm 3 mps 739 mmHg 91%
    23:00 +7°C° 0 mm 3 mps 739 mmHg 92%

    24 September, Monday

    Time Temperature Precipitation Wind Pressure Humidity
    00:00 +7°C° 0 mm 3 mps 739 mmHg 93%
    01:00 +7°C° 0 mm 3 mps 739 mmHg 94%
    02:00 +7°C° 0 mm 3 mps 739 mmHg 95%
    03:00 +7°C° 0 mm 3 mps 740 mmHg 95%
    04:00 +7°C° 0 mm 3 mps 740 mmHg 95%
    05:00 +7°C° 0 mm 3 mps 740 mmHg 95%
    06:00 +7°C° 0 mm 3 mps 740 mmHg 93%
    07:00 +8°C° 0 mm 3 mps 740 mmHg 91%
    08:00 +8°C° 0 mm 3 mps 740 mmHg 89%
    09:00 +9°C° 0 mm 3 mps 740 mmHg 85%
    10:00 +10°C° 0 mm 3 mps 740 mmHg 81%
    11:00 +11°C° 0 mm 3 mps 740 mmHg 77%
    12:00 +11°C° 0 mm 3 mps 740 mmHg 73%
    13:00 +12°C° 0 mm 3 mps 739 mmHg 69%
    14:00 +13°C° 0 mm 3 mps 738 mmHg 64%
    15:00 +12°C° 0.2 mm 3 mps 738 mmHg 70%
    16:00 +11°C° 0.2 mm 3 mps 737 mmHg 75%
    17:00 +10°C° 0.2 mm 3 mps 737 mmHg 80%
    18:00 +8°C° 2.1 mm 4 mps 736 mmHg 84%
    19:00 +8°C° 2.1 mm 5 mps 735 mmHg 87%
    20:00 +7°C° 2.1 mm 6 mps 735 mmHg 91%
    21:00 +6°C° 1.7 mm 7 mps 733 mmHg 91%
    22:00 +6°C° 1.7 mm 7 mps 731 mmHg 91%
    23:00 +6°C° 1.7 mm 8 mps 730 mmHg 90%

    25 September, Tuesday

    Time Temperature Precipitation Wind Pressure Humidity
    00:00 +7°C° 2.2 mm 8 mps 729 mmHg 90%
    01:00 +7°C° 2.2 mm 8 mps 727 mmHg 90%
    02:00 +9°C° 2.2 mm 8 mps 726 mmHg 90%
    03:00 +9°C° 0.6 mm 7 mps 726 mmHg 90%
    04:00 +9°C° 0.6 mm 6 mps 725 mmHg 90%
    05:00 +10°C° 0.6 mm 6 mps 725 mmHg 91%
    06:00 +9°C° 0.2 mm 6 mps 724 mmHg 90%
    07:00 +9°C° 0.2 mm 6 mps 724 mmHg 88%
    08:00 +9°C° 0.2 mm 6 mps 724 mmHg 87%
    09:00 +9°C° 0.2 mm 6 mps 724 mmHg 87%
    10:00 +9°C° 0.2 mm 6 mps 724 mmHg 87%
    11:00 +9°C° 0.2 mm 6 mps 724 mmHg 87%
    12:00 +9°C° 0.2 mm 6 mps 724 mmHg 87%
    13:00 +9°C° 0.2 mm 6 mps 725 mmHg 87%
    14:00 +9°C° 0.2 mm 5 mps 725 mmHg 87%
    15:00 +8°C° 0.2 mm 5 mps 725 mmHg 88%
    16:00 +8°C° 0.2 mm 5 mps 725 mmHg 88%
    17:00 +7°C° 0.2 mm 5 mps 725 mmHg 89%
    18:00 +7°C° 0.2 mm 5 mps 726 mmHg 89%
    19:00 +7°C° 0.2 mm 5 mps 726 mmHg 90%
    20:00 +6°C° 0.2 mm 5 mps 727 mmHg 90%
    21:00 +6°C° 0.3 mm 5 mps 728 mmHg 90%
    22:00 +6°C° 0.3 mm 5 mps 728 mmHg 90%
    23:00 +5°C° 0.3 mm 6 mps 729 mmHg 90%
    Show more